This is the latest recevied weather packets stored in our database for station/object WY7EM. If no packets are shown the sender has not sent any weather packets the latest 10 day(s).
| Time | Temp. | Humidity | Pressure | Rain* | Wind** | Luminosity | Snow |
|---|---|---|---|---|---|---|---|
| 1778161296 | 12.78° C | 29% | 1020.7 hPa | 0 mm | - | 34 W/m² | - |
| 1778160991 | 12.78° C | 30% | 1020.8 hPa | 0 mm | - | 32 W/m² | - |
| 1778160689 | 12.22° C | 31% | 1020.5 hPa | 0 mm | - | 31 W/m² | - |
| 1778160386 | 12.22° C | 31% | 1020.6 hPa | 0 mm | - | 30 W/m² | - |
| 1778160082 | 11.67° C | 32% | 1020.5 hPa | 0 mm | - | 28 W/m² | - |
| 1778159779 | 11.67° C | 34% | 1020.5 hPa | 0 mm | - | 27 W/m² | - |
| 1778159477 | 11.67° C | 32% | 1020.3 hPa | 0 mm | - | 25 W/m² | - |
| 1778159173 | 11.67° C | 32% | 1020.3 hPa | 0 mm | - | 23 W/m² | - |
| 1778158871 | 11.67° C | 34% | 1020.3 hPa | 0 mm | - | 21 W/m² | - |
| 1778158570 | 11.11° C | 35% | 1020.3 hPa | 0 mm | - | 19 W/m² | - |
| 1778158267 | 11.67° C | 35% | 1020.4 hPa | 0 mm | - | 16 W/m² | - |
| 1778157963 | 11.67° C | 34% | 1020.3 hPa | 0 mm | - | 14 W/m² | - |
| 1778157661 | 10.56° C | 36% | 1020.3 hPa | 0 mm | - | 11 W/m² | - |
| 1778157359 | 10.56° C | 35% | 1020 hPa | 0 mm | - | 8 W/m² | - |
| 1778157055 | 10.56° C | 34% | 1020.3 hPa | 0 mm | - | 5 W/m² | - |
| 1778156751 | 10° C | 35% | 1020.3 hPa | 0 mm | - | 3 W/m² | - |
| 1778156447 | 10° C | 36% | 1020.2 hPa | 0 mm | - | 2 W/m² | - |
| 1778156142 | 10° C | 37% | 1019.9 hPa | 0 mm | - | 1 W/m² | - |
| 1778155839 | 10.56° C | 36% | 1020 hPa | 0 mm | - | 0 W/m² | - |
| 1778155535 | 10.56° C | 37% | 1019.8 hPa | 0 mm | - | 0 W/m² | - |
| 1778155232 | 10.56° C | 37% | 1019.7 hPa | 0 mm | - | 0 W/m² | - |
| 1778154928 | 10.56° C | 37% | 1019.8 hPa | 0 mm | - | 0 W/m² | - |
| 1778154624 | 11.11° C | 35% | 1019.6 hPa | 0 mm | - | 0 W/m² | - |
| 1778154320 | 11.67° C | 35% | 1019.8 hPa | 0 mm | - | 0 W/m² | - |
| 1778154018 | 11.67° C | 34% | 1019.7 hPa | 0 mm | - | 0 W/m² | - |
* Rain latest hour (hover to see other rain measurements)
** Current wind speed in m/s (hover to see current wind gust speed)